Regional Weather Roundup
Issued by NWS

Home | Current Version | Previous Version | Text Only | Print | Product List | Glossary Off
Versions: 1 2 3 4 5 6 7 8 9 10 11 12 13 14 15 16 17 18 19 20 21 22 23 24 25 26 27 28 29 30 31 32 33 34 35 36 37 38 39 40 41 42 43 44 45 46 47 48 49 50

000
ASUS45 KBOU 190507
RWRCO

WEATHER ROUNDUP FOR COLORADO
NATIONAL WEATHER SERVICE DENVER/BOULDER CO
1100 PM MDT THU SEP 18 2014

NOTE: "FAIR" INDICATES FEW OR NO CLOUDS BELOW 12000 FEET WITH NO
SIGNIFICANT WEATHER AND/OR OBSTRUCTIONS TO VISIBILITY.

COZ001>005-013-030-031-190600-
...NORTHWEST COLORADO...

CITY           SKY/WX    TMP DP  RH WIND       PRES   REMARKS
CRAIG          CLEAR     52  42  69 CALM      30.03R
HAYDEN         CLEAR     59  37  44 SE9       30.05R
MEEKER         CLEAR     56  40  55 NE7       30.05R
MOUNT WERNER   NOT AVBL
STEAMBOAT SPGS CLEAR     56  41  57 SE7       30.08R
WALDEN         CLEAR     45  34  65 SE9       30.15S
$$

COZ006>008-011-190600-
...WEST CENTRAL VALLEYS...

CITY           SKY/WX    TMP DP  RH WIND       PRES   REMARKS
GRAND JUNCTION CLEAR     68  45  43 E5        29.92R
MONTROSE       CLEAR     64  45  49 S7        30.03R
EAGLE          CLEAR     59  41  51 E6        30.09R
RIFLE          CLEAR     63  41  44 CALM      29.99R
DELTA          CLEAR     67  44  43 NE6       29.98R
NUCLA          CLEAR     64  41  42 E10       30.07R
$$

COZ017>023-064>068-190600-
...SOUTHWEST COLORADO...

CITY           SKY/WX    TMP DP  RH WIND       PRES   REMARKS
DURANGO        CLEAR     60  40  47 N9        30.09R
CORTEZ         CLEAR     56  45  66 E6        30.04R
PAGOSA SPRINGS CLEAR     58  33  39 N3        30.18R
TELLURIDE      NOT AVBL
WOLF CREEK PAS CLEAR     46  28  49 SW12      30.48F
$$

COZ009-010-012-014-032>034-037-058>063-190600-
...CENTRAL COLORADO...

CITY           SKY/WX    TMP DP  RH WIND       PRES   REMARKS
ASPEN          CLEAR     56  38  50 S7        30.17R
BUENA VISTA    CLEAR     51  29  42 W5        30.22R
COPPER MTN     NOT AVBL
BERTHOUD PASS  FAIR      45  43  93 MISG      30.54S
COTTONWOOD PAS CLEAR     61  23  23 CALM      30.35S
GUNNISON       PTCLDY    54  34  47 N7        30.20R
KREMMLING      CLEAR     52  36  54 CALM      30.14R
LEADVILLE      CLEAR     49  27  42 NE5       30.34R
MONARCH PASS   CLEAR     48  28  46 S16       30.60S
SALIDA         CLEAR     60  30  31 SW8       30.26R
SUNLIGHT       CLEAR     54  34  47 CALM      30.41R
WILKERSON PASS NOT AVBL
$$

COZ069>075-190600-
...SAN LUIS VALLEY/SANGRE DE CRISTO MOUNTAINS...

CITY           SKY/WX    TMP DP  RH WIND       PRES   REMARKS
ALAMOSA        CLEAR     56  41  57 SE9       30.18R
LA VETA PASS   CLEAR     54  34  47 E7        30.38S
SAGUACHE       NOT AVBL
$$

COZ035-036-038>040-190600-
...NORTHERN COLORADO FRONT RANGE...

CITY           SKY/WX    TMP DP  RH WIND       PRES   REMARKS
DENVER INTL AP CLEAR     67  40  37 S12       29.97S
DMNS CITY PARK NOT AVBL
AURORA         CLEAR     71  40  32 S23G29    29.99S
FRONT RANGE AP CLEAR     72  43  35 S13       29.99S
ERIE MUNI ARPT CLEAR     68  37  32 SW6       29.93
BOULDER MUN AP CLEAR     64  41  42 SE3       29.94R
CENTENNIAL     CLEAR     70  38  31 S14       30.01R
BROOMFIELD     NOT AVBL
FORT COLLINS   CLEAR     64  41  42 S6        29.93S
LONGMONT       CLEAR     62  43  49 CALM      29.94S
$$

COZ041-046-047-076>085-087-088-190600-
...PIKES PEAK/PALMER DIVIDE AND SOUTHERN FOOTHILLS...

CITY           SKY/WX    TMP DP  RH WIND       PRES   REMARKS
COLO. SPRINGS  CLEAR     62  39  42 E6        30.11S
A. F. ACADEMY  CLEAR     61  38  42 S7        30.12R
ELLICOTT       NOT AVBL
FALCON         CLEAR     56  44  62 S7        30.16F
FORT CARSON    CLEAR     65  44  46 S9        30.08S
LIMON          CLEAR     65  49  56 S13       30.04S
MONUMENT HILL  CLEAR     63  39  42 S20G29    30.12S
TRINIDAD       CLEAR     61  52  72 CALM      30.10R
$$

COZ042>045-048>051-090-091-190600-
...NORTHEAST COLORADO...

CITY           SKY/WX    TMP DP  RH WIND       PRES   REMARKS
GREELEY ARPT   CLEAR     66  41  39 S9        29.91F
AKRON          CLEAR     71  50  47 S16       29.95S
BURLINGTON     CLEAR     70  54  56 S16       29.98R
WRAY           CLEAR     67  56  68 S7        29.91F
STERLING       CLEAR     66  55  68 S5        29.89S
HOLYOKE        CLEAR     63  61  94 SE6       29.91F
FORT MORGAN    CLEAR     65  43  44 S7        29.93S
$$

COZ086-089-092>099-190600-
...SOUTHEAST COLORADO...

CITY           SKY/WX    TMP DP  RH WIND       PRES   REMARKS
PUEBLO         CLEAR     68  50  52 E5        29.99S
LA JUNTA       CLEAR     69  56  62 S8        29.99S
LAMAR          CLEAR     64  55  72 SE6       29.97S
SPRINGFIELD      N/A     61  60  97 SW8       30.04F
$$



USA.gov is the U.S. government's official web portal to all federal, state and local government web resources and services.